This is the latest recevied weather packets stored in our database for station/object DJ4CK-1. If no packets are shown the sender has not sent any weather packets the latest 10 day(s).
| Time | Temp. | Humidity | Pressure | Rain* | Wind** | Luminosity | Snow |
|---|---|---|---|---|---|---|---|
| 1778001484 | 17.22° C | 55% | 1005.5 hPa | 0 mm | - | - | - |
| 1778001424 | 17.22° C | 55% | 1005.5 hPa | 0 mm | - | - | - |
| 1778001363 | 17.22° C | 55% | 1005.5 hPa | 0 mm | - | - | - |
| 1778001303 | 17.78° C | 55% | 1005.4 hPa | 0 mm | - | - | - |
| 1778001244 | 17.78° C | 55% | 1005.4 hPa | 0 mm | - | - | - |
| 1778001183 | 17.78° C | 54% | 1005.4 hPa | 0 mm | - | - | - |
| 1778001123 | 17.78° C | 54% | 1005.4 hPa | 0 mm | - | - | - |
| 1778001064 | 17.78° C | 54% | 1005.4 hPa | 0 mm | - | - | - |
| 1778001004 | 17.78° C | 53% | 1005.4 hPa | 0 mm | - | - | - |
| 1778000943 | 18.33° C | 52% | 1005.3 hPa | 0 mm | - | - | - |
| 1778000824 | 18.33° C | 51% | 1005.2 hPa | 0 mm | - | - | - |
| 1778000763 | 18.33° C | 49% | 1005.2 hPa | 0 mm | - | - | - |
| 1778000703 | 18.89° C | 49% | 1005.2 hPa | 0 mm | - | - | - |
| 1778000644 | 18.89° C | 47% | 1005.1 hPa | 0 mm | - | - | - |
| 1778000583 | 20° C | 43% | 1005.1 hPa | 0 mm | - | - | - |
| 1778000523 | 20.56° C | 41% | 1005 hPa | 0 mm | - | - | - |
| 1778000464 | 21.11° C | 37% | 1005 hPa | 0 mm | - | - | - |
| 1778000403 | 21.11° C | 34% | 1004.9 hPa | 0 mm | - | - | - |
| 1778000343 | 21.11° C | 35% | 1004.7 hPa | 0 mm | - | - | - |
| 1778000283 | 21.11° C | 34% | 1004.7 hPa | 0 mm | - | - | - |
| 1778000224 | 21.11° C | 34% | 1004.7 hPa | 0 mm | - | - | - |
| 1778000163 | 21.67° C | 34% | 1004.6 hPa | 0 mm | - | - | - |
| 1778000103 | 21.11° C | 34% | 1004.6 hPa | 0 mm | - | - | - |
| 1778000044 | 21.67° C | 34% | 1004.6 hPa | 0 mm | - | - | - |
| 1777999983 | 21.67° C | 34% | 1004.6 hPa | 0 mm | - | - | - |
* Rain latest hour (hover to see other rain measurements)
** Current wind speed in m/s (hover to see current wind gust speed)